TVF15MK LFMT-LFPO

Flight info

Callsign TVF15MK
Flight time 1h 5m
Altitude 34000
Route NG DCT MOLEN DCT MTL DCT IDAVO/N0420F320 DCT ARDOL
Aircraft B738/M-SDFGHIJ1RWXY/LB1

Departure

Time 2026-04-25 17:46
Airport Montpellier-Méditerranée Airport (LFMT)

Arrival

Time 2026-04-25 18:52
Airport Paris-Orly Airport (LFPO)
Time Latitude Longitude Altitude Speed Heading
2026-04-25 17:23 43.57980 3.95920 14 ft 0 kts 189°
2026-04-25 17:38 43.58008 3.95907 14 ft 4 kts 147°
2026-04-25 17:38 43.58028 3.95902 14 ft 4 kts 195°
2026-04-25 17:39 43.58046 3.95919 14 ft 4 kts 253°
2026-04-25 17:39 43.58047 3.95954 14 ft 4 kts 285°
2026-04-25 17:39 43.58038 3.95987 14 ft 4 kts 298°
2026-04-25 17:39 43.58025 3.96016 14 ft 1 kts 304°
2026-04-25 17:42 43.58029 3.96008 14 ft 3 kts 305°
2026-04-25 17:42 43.58038 3.95986 14 ft 5 kts 295°
2026-04-25 17:42 43.58065 3.95887 15 ft 11 kts 300°
2026-04-25 17:43 43.58113 3.95797 16 ft 12 kts 308°
2026-04-25 17:43 43.58159 3.95763 16 ft 12 kts 356°
2026-04-25 17:43 43.58225 3.95818 15 ft 11 kts 25°
2026-04-25 17:43 43.58314 3.95758 14 ft 12 kts 306°
2026-04-25 17:44 43.58346 3.95693 13 ft 12 kts 304°
2026-04-25 17:44 43.58392 3.95601 14 ft 12 kts 304°
2026-04-25 17:44 43.58443 3.95517 14 ft 11 kts 325°
2026-04-25 17:44 43.58518 3.95507 12 ft 11 kts 23°
2026-04-25 17:45 43.58579 3.95573 11 ft 11 kts 55°
2026-04-25 17:45 43.58576 3.95643 10 ft 11 kts 115°
2026-04-25 17:45 43.58402 3.95988 11 ft 78 kts 124°
2026-04-25 17:45 43.57963 3.96857 13 ft 143 kts 126°
2026-04-25 17:46 43.57381 3.98013 338 ft 164 kts 126°
2026-04-25 17:46 43.56799 3.99322 1270 ft 160 kts 118°
2026-04-25 17:46 43.56595 4.00850 2013 ft 168 kts 89°
2026-04-25 17:46 43.56889 4.02424 2832 ft 173 kts 65°
2026-04-25 17:47 43.57616 4.03830 3448 ft 190 kts 41°
2026-04-25 17:47 43.58767 4.04858 3780 ft 216 kts 18°
2026-04-25 17:47 43.60268 4.05511 4096 ft 238 kts 13°
2026-04-25 17:47 43.61959 4.06157 4522 ft 260 kts 14°
2026-04-25 17:48 43.65129 4.08477 6400 ft 270 kts 45°
2026-04-25 17:48 43.66385 4.10434 7269 ft 275 kts 46°
2026-04-25 17:48 43.67652 4.12449 8118 ft 279 kts 46°
2026-04-25 17:49 43.68919 4.14456 8980 ft 282 kts 46°
2026-04-25 17:49 43.70205 4.16481 9817 ft 285 kts 46°
2026-04-25 17:49 43.71555 4.18595 10543 ft 294 kts 46°
2026-04-25 17:49 43.72963 4.20785 10757 ft 320 kts 46°
2026-04-25 17:50 43.74490 4.23156 11141 ft 337 kts 46°
2026-04-25 17:50 43.76066 4.25609 11830 ft 343 kts 46°
2026-04-25 17:50 43.77812 4.27861 12665 ft 342 kts 34°
2026-04-25 17:50 43.79851 4.29478 13453 ft 344 kts 23°
2026-04-25 17:51 43.82068 4.30840 14178 ft 349 kts 22°
2026-04-25 17:51 43.84302 4.32186 14919 ft 355 kts 22°
2026-04-25 17:51 43.86595 4.33571 15687 ft 360 kts 22°
2026-04-25 17:51 43.88902 4.34976 16421 ft 364 kts 22°
2026-04-25 17:52 43.91215 4.36396 17115 ft 370 kts 22°
2026-04-25 17:52 43.92810 4.37380 17577 ft 373 kts 22°
2026-04-25 17:52 43.95968 4.39335 18485 ft 380 kts 22°
2026-04-25 17:52 43.98413 4.40853 19167 ft 384 kts 22°
2026-04-25 17:53 44.00864 4.42376 19826 ft 388 kts 22°
2026-04-25 17:53 44.03324 4.43905 20480 ft 391 kts 22°
2026-04-25 17:53 44.05823 4.45461 21115 ft 395 kts 22°
2026-04-25 17:53 44.08342 4.47039 21710 ft 398 kts 23°
2026-04-25 17:54 44.10875 4.48672 22269 ft 403 kts 23°
2026-04-25 17:54 44.13426 4.50336 22833 ft 406 kts 23°
2026-04-25 17:54 44.15973 4.52004 23395 ft 410 kts 23°
2026-04-25 17:54 44.18578 4.53711 23922 ft 413 kts 23°
2026-04-25 17:55 44.21194 4.55425 24433 ft 417 kts 23°
2026-04-25 17:55 44.23800 4.57133 24937 ft 420 kts 23°
2026-04-25 17:55 44.26470 4.58882 25422 ft 423 kts 23°
2026-04-25 17:55 44.29154 4.60641 25879 ft 426 kts 23°
2026-04-25 17:56 44.31825 4.62393 26326 ft 429 kts 23°
2026-04-25 17:56 44.34542 4.64176 26749 ft 433 kts 23°
2026-04-25 17:56 44.37290 4.65982 27164 ft 436 kts 23°
2026-04-25 17:56 44.40014 4.67774 27584 ft 438 kts 23°
2026-04-25 17:57 44.42787 4.69600 27983 ft 441 kts 23°
2026-04-25 17:57 44.45584 4.71445 28373 ft 444 kts 23°
2026-04-25 17:57 44.48386 4.73295 28745 ft 447 kts 23°
2026-04-25 17:57 44.50254 4.74529 28987 ft 448 kts 23°
2026-04-25 17:58 44.54030 4.76984 29455 ft 451 kts 20°
2026-04-25 17:58 44.57012 4.78377 29799 ft 451 kts 11°
2026-04-25 17:58 44.60104 4.79134 30244 ft 448 kts
2026-04-25 17:58 44.63195 4.79739 30763 ft 446 kts
2026-04-25 17:59 44.66231 4.80308 31225 ft 445 kts
2026-04-25 17:59 44.69299 4.80886 31651 ft 444 kts
2026-04-25 17:59 44.72371 4.81480 32055 ft 444 kts
2026-04-25 17:59 44.75433 4.82086 32467 ft 443 kts
2026-04-25 18:00 44.78485 4.82702 32876 ft 443 kts
2026-04-25 18:00 44.81531 4.83324 33280 ft 442 kts
2026-04-25 18:00 44.84550 4.83945 33644 ft 441 kts
2026-04-25 18:00 44.87617 4.84578 33990 ft 442 kts
2026-04-25 18:01 44.90626 4.85199 34028 ft 442 kts
2026-04-25 18:01 44.96698 4.86455 34049 ft 441 kts
2026-04-25 18:02 45.02781 4.87715 34051 ft 441 kts
2026-04-25 18:02 45.08837 4.88970 34058 ft 440 kts
2026-04-25 18:03 45.14885 4.90227 34055 ft 441 kts
2026-04-25 18:03 45.20972 4.91495 34064 ft 440 kts
2026-04-25 18:04 45.27013 4.92757 34067 ft 441 kts
2026-04-25 18:04 45.33098 4.94030 34070 ft 441 kts
2026-04-25 18:05 45.39180 4.95305 34073 ft 440 kts
2026-04-25 18:05 45.45200 4.96570 34073 ft 440 kts
2026-04-25 18:06 45.51260 4.97845 34073 ft 440 kts
2026-04-25 18:06 45.57320 4.99124 34070 ft 440 kts
2026-04-25 18:07 45.63386 5.00407 34076 ft 440 kts
2026-04-25 18:07 45.69425 5.01687 34078 ft 440 kts
2026-04-25 18:08 45.75498 5.02977 34070 ft 440 kts
2026-04-25 18:08 45.81560 5.04268 34076 ft 439 kts
2026-04-25 18:09 45.87585 5.05554 34075 ft 439 kts
2026-04-25 18:09 45.93601 5.06840 34071 ft 438 kts
2026-04-25 18:10 45.99652 5.08137 34074 ft 438 kts
2026-04-25 18:10 46.02651 5.08453 34066 ft 434 kts 355°
2026-04-25 18:10 46.05654 5.07984 34083 ft 430 kts 346°
2026-04-25 18:11 46.11249 5.05156 34086 ft 425 kts 334°
2026-04-25 18:11 46.16607 5.01604 34086 ft 425 kts 334°
2026-04-25 18:12 46.22005 4.98116 34082 ft 426 kts 334°
2026-04-25 18:12 46.27451 4.94640 34086 ft 426 kts 334°
2026-04-25 18:13 46.32867 4.91168 34089 ft 426 kts 334°
2026-04-25 18:13 46.38261 4.87700 34090 ft 427 kts 334°
2026-04-25 18:14 46.46417 4.82439 34091 ft 427 kts 334°
2026-04-25 18:14 46.51825 4.78941 34096 ft 427 kts 334°
2026-04-25 18:15 46.57279 4.75406 34100 ft 428 kts 334°
2026-04-25 18:15 46.62682 4.71897 34104 ft 427 kts 334°
2026-04-25 18:16 46.68115 4.68360 34101 ft 427 kts 334°
2026-04-25 18:17 46.76257 4.63048 34101 ft 428 kts 334°
2026-04-25 18:17 46.81692 4.59533 34105 ft 427 kts 334°
2026-04-25 18:18 46.87120 4.56026 34099 ft 427 kts 334°
2026-04-25 18:18 46.92574 4.52489 34102 ft 427 kts 334°
2026-04-25 18:19 46.97970 4.48979 34102 ft 427 kts 334°
2026-04-25 18:19 47.03425 4.45422 34101 ft 427 kts 334°
2026-04-25 18:20 47.08844 4.41881 34100 ft 427 kts 334°
2026-04-25 18:20 47.14261 4.38333 34103 ft 427 kts 333°
2026-04-25 18:21 47.19701 4.34761 34097 ft 427 kts 333°
2026-04-25 18:21 47.25134 4.31187 34102 ft 426 kts 333°
2026-04-25 18:21 47.27791 4.29437 33866 ft 418 kts 333°
2026-04-25 18:22 47.30457 4.27679 33190 ft 419 kts 333°
2026-04-25 18:22 47.31360 4.27082 32924 ft 420 kts 333°
2026-04-25 18:22 47.35813 4.24136 31687 ft 425 kts 333°
2026-04-25 18:22 47.38522 4.22343 31169 ft 421 kts 334°
2026-04-25 18:23 47.41145 4.20605 30739 ft 416 kts 334°
2026-04-25 18:23 47.43772 4.18863 30284 ft 412 kts 333°
2026-04-25 18:23 47.46392 4.17124 29782 ft 408 kts 333°
2026-04-25 18:23 47.48980 4.15403 29265 ft 405 kts 333°
2026-04-25 18:24 47.51524 4.13711 28745 ft 402 kts 333°
2026-04-25 18:24 47.54081 4.12008 28212 ft 399 kts 334°
2026-04-25 18:24 47.56575 4.10346 27709 ft 396 kts 334°
2026-04-25 18:24 47.59095 4.08664 27223 ft 393 kts 334°
2026-04-25 18:25 47.61580 4.07003 26711 ft 390 kts 334°
2026-04-25 18:25 47.64019 4.05371 26208 ft 387 kts 334°
2026-04-25 18:25 47.66482 4.03722 25713 ft 384 kts 334°
2026-04-25 18:25 47.68888 4.02109 25227 ft 381 kts 334°
2026-04-25 18:26 47.71299 4.00491 24723 ft 379 kts 334°
2026-04-25 18:26 47.73709 3.98873 24216 ft 376 kts 334°
2026-04-25 18:26 47.76082 3.97277 23732 ft 374 kts 334°
2026-04-25 18:26 47.78394 3.95649 23257 ft 369 kts 328°
2026-04-25 18:27 47.80378 3.93264 22758 ft 365 kts 311°
2026-04-25 18:27 47.81882 3.90241 22307 ft 361 kts 303°
2026-04-25 18:27 47.83252 3.87129 21832 ft 358 kts 302°
2026-04-25 18:27 47.84580 3.84049 21358 ft 356 kts 302°
2026-04-25 18:28 47.85920 3.80957 20893 ft 353 kts 303°
2026-04-25 18:28 47.87257 3.77901 20437 ft 351 kts 303°
2026-04-25 18:28 47.88557 3.74950 19997 ft 348 kts 303°
2026-04-25 18:29 47.91231 3.68913 19041 ft 344 kts 303°
2026-04-25 18:29 47.92552 3.65932 18615 ft 341 kts 303°
2026-04-25 18:30 47.96420 3.57199 17497 ft 335 kts 304°
2026-04-25 18:30 47.97889 3.54491 17122 ft 334 kts 312°
2026-04-25 18:30 47.99505 3.52012 16761 ft 333 kts 315°
2026-04-25 18:30 48.00605 3.50397 16516 ft 333 kts 315°
2026-04-25 18:31 48.02812 3.47164 16029 ft 331 kts 315°
2026-04-25 18:31 48.04431 3.44760 15669 ft 330 kts 314°
2026-04-25 18:31 48.05527 3.43115 15426 ft 330 kts 314°
2026-04-25 18:31 48.07119 3.40708 15067 ft 329 kts 314°
2026-04-25 18:32 48.08735 3.38246 14710 ft 327 kts 314°
2026-04-25 18:32 48.10304 3.35849 14345 ft 325 kts 314°
2026-04-25 18:32 48.11886 3.33425 13993 ft 324 kts 314°
2026-04-25 18:32 48.13463 3.31003 13637 ft 323 kts 314°
2026-04-25 18:33 48.15015 3.28619 13280 ft 322 kts 314°
2026-04-25 18:33 48.16582 3.26210 12926 ft 320 kts 314°
2026-04-25 18:33 48.18129 3.23829 12576 ft 316 kts 314°
2026-04-25 18:33 48.19652 3.21482 12225 ft 310 kts 314°
2026-04-25 18:34 48.21114 3.19229 11895 ft 298 kts 314°
2026-04-25 18:34 48.22551 3.17017 11595 ft 294 kts 314°
2026-04-25 18:34 48.23973 3.14829 11292 ft 291 kts 314°
2026-04-25 18:34 48.25387 3.12651 10987 ft 289 kts 314°
2026-04-25 18:35 48.26770 3.10519 10695 ft 286 kts 314°
2026-04-25 18:35 48.28150 3.08379 10395 ft 284 kts 314°
2026-04-25 18:35 48.29526 3.06251 10197 ft 284 kts 315°
2026-04-25 18:35 48.30928 3.04086 10164 ft 291 kts 314°
2026-04-25 18:36 48.32330 3.01922 10134 ft 290 kts 314°
2026-04-25 18:36 48.33730 2.99755 10122 ft 287 kts 314°
2026-04-25 18:36 48.35124 2.97594 10122 ft 286 kts 314°
2026-04-25 18:36 48.36502 2.95457 10132 ft 287 kts 314°
2026-04-25 18:37 48.37896 2.93291 10132 ft 288 kts 314°
2026-04-25 18:37 48.39293 2.91121 10126 ft 289 kts 314°
2026-04-25 18:37 48.40678 2.88968 10128 ft 289 kts 314°
2026-04-25 18:37 48.42091 2.86769 10127 ft 289 kts 314°
2026-04-25 18:38 48.43468 2.84623 10129 ft 289 kts 314°
2026-04-25 18:38 48.44829 2.82388 10119 ft 289 kts 305°
2026-04-25 18:38 48.45614 2.79624 10132 ft 289 kts 281°
2026-04-25 18:38 48.45772 2.76589 10141 ft 289 kts 273°
2026-04-25 18:39 48.45838 2.73554 10130 ft 290 kts 273°
2026-04-25 18:39 48.45908 2.70558 10128 ft 290 kts 273°
2026-04-25 18:39 48.45987 2.67495 10128 ft 290 kts 273°
2026-04-25 18:39 48.46070 2.64474 10130 ft 290 kts 273°
2026-04-25 18:40 48.46185 2.61421 10131 ft 290 kts 275°
2026-04-25 18:40 48.46335 2.58388 10135 ft 290 kts 275°
2026-04-25 18:40 48.46494 2.55385 10138 ft 290 kts 276°
2026-04-25 18:40 48.46657 2.52349 10140 ft 290 kts 275°
2026-04-25 18:41 48.46812 2.49353 10140 ft 290 kts 275°
2026-04-25 18:41 48.46963 2.46294 10136 ft 290 kts 275°
2026-04-25 18:41 48.47118 2.43256 10141 ft 290 kts 275°
2026-04-25 18:41 48.47267 2.40264 10139 ft 290 kts 275°
2026-04-25 18:42 48.47413 2.37227 10137 ft 290 kts 275°
2026-04-25 18:42 48.47509 2.35203 10132 ft 289 kts 275°
2026-04-25 18:42 48.47696 2.31172 9916 ft 285 kts 275°
2026-04-25 18:42 48.47833 2.28184 9519 ft 287 kts 275°
2026-04-25 18:43 48.47967 2.25213 9128 ft 288 kts 275°
2026-04-25 18:43 48.48102 2.22190 8788 ft 287 kts 275°
2026-04-25 18:43 48.48236 2.19181 8464 ft 286 kts 275°
2026-04-25 18:43 48.48367 2.16229 8170 ft 283 kts 275°
2026-04-25 18:44 48.48494 2.13261 7841 ft 282 kts 275°
2026-04-25 18:44 48.48641 2.10343 7525 ft 280 kts 281°
2026-04-25 18:44 48.49177 2.07513 7214 ft 277 kts 290°
2026-04-25 18:44 48.49819 2.04812 6922 ft 275 kts 291°
2026-04-25 18:45 48.50480 2.02097 6596 ft 274 kts 291°
2026-04-25 18:45 48.51221 1.99454 6269 ft 272 kts 304°
2026-04-25 18:45 48.52560 1.97507 5954 ft 267 kts 332°
2026-04-25 18:45 48.54276 1.96812 5855 ft 255 kts
2026-04-25 18:46 48.55958 1.97445 5782 ft 245 kts 27°
2026-04-25 18:46 48.57403 1.98721 5681 ft 236 kts 31°
2026-04-25 18:46 48.58792 2.00040 5447 ft 235 kts 32°
2026-04-25 18:46 48.60171 2.01358 5131 ft 237 kts 31°
2026-04-25 18:47 48.61469 2.02838 4772 ft 231 kts 49°
2026-04-25 18:47 48.62400 2.04786 4303 ft 227 kts 54°
2026-04-25 18:47 48.63223 2.06774 3976 ft 221 kts 59°
2026-04-25 18:47 48.63944 2.08751 3677 ft 218 kts 60°
2026-04-25 18:48 48.64658 2.10790 3376 ft 214 kts 60°
2026-04-25 18:48 48.65349 2.12770 3106 ft 208 kts 60°
2026-04-25 18:48 48.66014 2.14669 2836 ft 202 kts 60°
2026-04-25 18:48 48.66655 2.16495 2565 ft 196 kts 60°
2026-04-25 18:49 48.67288 2.18300 2302 ft 192 kts 60°
2026-04-25 18:49 48.67905 2.20057 2053 ft 187 kts 60°
2026-04-25 18:49 48.68502 2.21756 1818 ft 175 kts 60°
2026-04-25 18:49 48.69051 2.23318 1583 ft 162 kts 60°
2026-04-25 18:50 48.69565 2.24779 1374 ft 150 kts 60°
2026-04-25 18:50 48.70046 2.26148 1186 ft 145 kts 60°
2026-04-25 18:50 48.70503 2.27446 996 ft 138 kts 59°
2026-04-25 18:50 48.70953 2.28724 825 ft 138 kts 59°
2026-04-25 18:51 48.71412 2.30030 612 ft 140 kts 60°
2026-04-25 18:51 48.71716 2.30892 491 ft 138 kts 59°
2026-04-25 18:51 48.72316 2.32586 295 ft 135 kts 60°
2026-04-25 18:51 48.72697 2.33670 293 ft 95 kts 62°
2026-04-25 18:52 48.72938 2.34353 290 ft 46 kts 63°
2026-04-25 18:52 48.73004 2.34683 289 ft 29 kts 82°
2026-04-25 18:52 48.73026 2.34916 290 ft 16 kts 82°
2026-04-25 18:52 48.73036 2.35024 290 ft 9 kts 81°
2026-04-25 18:53 48.73042 2.35103 290 ft 6 kts 85°
2026-04-25 18:53 48.73036 2.35169 291 ft 7 kts 109°
2026-04-25 18:53 48.73013 2.35230 290 ft 7 kts 126°
2026-04-25 18:53 48.72976 2.35283 290 ft 8 kts 147°
2026-04-25 18:54 48.72883 2.35405 290 ft 9 kts 138°
2026-04-25 18:54 48.72817 2.35449 290 ft 12 kts 168°
2026-04-25 18:54 48.72733 2.35482 293 ft 14 kts 164°
2026-04-25 18:55 48.72637 2.35524 290 ft 15 kts 164°
2026-04-25 18:55 48.72554 2.35558 290 ft 11 kts 165°
2026-04-25 18:55 48.72480 2.35598 290 ft 11 kts 144°
2026-04-25 18:55 48.72468 2.35701 290 ft 11 kts 73°
2026-04-25 18:56 48.72478 2.35817 290 ft 12 kts 94°
2026-04-25 18:56 48.72469 2.35953 290 ft 13 kts 95°
2026-04-25 18:56 48.72480 2.36088 290 ft 13 kts 75°
2026-04-25 18:56 48.72506 2.36221 290 ft 14 kts 73°
2026-04-25 18:57 48.72532 2.36368 290 ft 15 kts 73°
2026-04-25 18:57 48.72558 2.36514 290 ft 14 kts 75°
2026-04-25 18:57 48.72583 2.36633 290 ft 11 kts 69°
2026-04-25 18:57 48.72592 2.36669 290 ft 11 kts 69°
2026-04-25 18:58 48.72680 2.36725 290 ft 7 kts 21°
2026-04-25 18:58 48.72715 2.36747 290 ft 1 kts 22°
2026-04-25 18:58 48.72717 2.36748 290 ft 0 kts 22°